QPF
0.00 0.00 0.00 0.00 0.00 0.00 0.00 0.00 0.00 0.01 0.00 0.00 0.00 0.00 0.00 0.00 0.00 0.00 0.00 0.00 0.00 0.00
0.00 0.00 0.00 0.01 0.00 0.00 0.00 0.00 0.00 0.00 0.00 0.00 0.00 0.00 0.00 0.00 0.00 0.00 0.00 0.00 0.00 0.00
0.00 0.00 0.00 0.02 0.00 0.00 0.00 0.00 0.00 0.01 0.00 0.00 0.00 0.00 0.00 0.00 0.00 0.00 0.00 0.00 0.00 0.00
0.00 0.00 0.00 0.01 0.00 0.00 0.00 0.00 0.00 0.00 0.00 0.00 0.00 0.01 0.00 0.00 0.00 0.00 0.00 0.00 0.00 0.00
0.00 0.00 0.00 0.00 0.00 0.00 0.00 0.00 0.00 0.01 0.00 0.00 0.00 0.00 0.00 0.00 0.00 0.00 0.00 0.00 0.00 0.00
0.00 0.00 0.00 0.00 0.00 0.00 0.00 0.00 0.00 0.05 0.01 0.00 0.00 0.00 0.00 0.00 0.00 0.00 0.00 0.00 0.00 0.01
0.02 0.00 0.00 0.00 0.00 0.00 0.00 0.01 0.01 0.01 0.01 0.00 0.00 0.00 0.00 0.00 0.00 0.02 0.00 0.00 0.00 0.00
0.08 0.05 0.03 0.01 0.01 0.00 0.00 0.00 0.01 0.02 0.00 0.00 0.05 0.02 0.01 0.00 0.00 0.05 0.02 0.00 0.00 0.00
0.08 0.05 0.05 0.05 0.07 0.07 0.04 0.01 0.00 0.00 0.00 0.00 0.00 0.02 0.01 0.00 0.00 0.01 0.04 0.02 0.02 0.01
0.08 0.06 0.04 0.03 0.07 0.07 0.08 0.12 0.08 0.01 0.01 0.00 0.02 0.06 0.03 0.00 0.00 0.02 0.02 0.00 0.03 0.06
0.06 0.13 0.12 0.09 0.08 0.04 0.07 0.03 0.05 0.07 0.06 0.05 0.05 0.11 0.09 0.06 0.02 0.00 0.01 0.00 0.01 0.01
0.05 0.09 0.16 0.19 0.19 0.12 0.05 0.02 0.04 0.06 0.05 0.02 0.00 0.00 0.00 0.01 0.01 0.05 0.10 0.02 0.00 0.00
0.06 0.09 0.08 0.18 0.24 0.20 0.17 0.12 0.05 0.02 0.03 0.06 0.03 0.06 0.02 0.01 0.01 0.02 0.01 0.00 0.00 0.01
0.00 0.06 0.16 0.13 0.14 0.18 0.19 0.17 0.14 0.11 0.10 0.06 0.02 0.05 0.07 0.04 0.02 0.03 0.00 0.00 0.01 0.01
MSLP
1017.44 1017.51 1017.61 1017.63 1017.90 1018.02 1018.23 1018.20 1018.17 1018.55 1018.70 1018.82 1018.98 1018.97 1018.99 1019.48 1019.63 1019.68 1019.68 1019.50 1019.65 1019.94
1017.12 1017.47 1017.42 1017.51 1017.77 1017.75 1017.95 1017.91 1018.00 1018.08 1018.42 1018.49 1018.67 1018.79 1018.97 1019.22 1019.36 1019.39 1019.36 1019.33 1019.49 1019.57
1016.64 1016.93 1017.20 1017.60 1017.65 1017.55 1017.57 1017.54 1017.71 1017.93 1017.99 1018.18 1018.28 1018.42 1018.89 1019.16 1019.18 1019.18 1019.17 1019.22 1019.33 1019.30
1016.17 1016.56 1016.87 1017.26 1017.42 1017.32 1017.42 1017.28 1017.45 1017.62 1017.99 1018.17 1018.28 1018.47 1018.71 1018.84 1018.99 1018.87 1018.94 1019.03 1019.13 1019.26
1015.85 1016.05 1016.53 1016.78 1017.00 1017.25 1017.43 1017.47 1017.43 1017.61 1017.93 1018.20 1018.34 1018.42 1018.47 1018.58 1018.60 1018.81 1018.87 1018.88 1019.08 1019.17
1016.01 1015.99 1016.08 1016.30 1016.49 1016.80 1017.05 1017.17 1017.32 1017.60 1017.89 1017.97 1018.15 1018.18 1018.19 1018.27 1018.32 1018.44 1018.48 1018.56 1018.72 1018.71
1016.02 1015.82 1015.76 1015.93 1016.14 1016.25 1016.45 1016.83 1017.20 1017.45 1017.51 1017.56 1017.68 1017.82 1017.85 1017.97 1018.02 1018.17 1018.22 1018.28 1018.39 1018.51
1015.93 1015.95 1015.47 1015.37 1015.50 1015.72 1016.00 1016.29 1016.59 1016.84 1017.08 1017.11 1017.34 1017.48 1017.64 1017.72 1017.75 1017.82 1017.81 1017.85 1018.01 1018.17
1015.72 1015.67 1015.53 1014.93 1014.99 1015.16 1015.35 1015.68 1016.10 1016.38 1016.52 1016.77 1016.90 1016.95 1017.06 1017.23 1017.39 1017.40 1017.56 1017.64 1017.62 1017.83
1015.19 1015.02 1015.09 1015.10 1014.66 1014.70 1014.91 1015.10 1015.57 1015.87 1016.09 1016.33 1016.47 1016.67 1016.82 1016.94 1017.06 1017.09 1017.06 1017.13 1017.29 1017.56
1014.52 1014.45 1014.60 1014.60 1014.52 1014.14 1014.40 1014.65 1015.02 1015.38 1015.56 1015.81 1016.14 1016.39 1016.55 1016.76 1016.94 1016.96 1016.92 1016.97 1017.08 1017.29
1014.37 1014.08 1014.05 1014.33 1015.12 1014.26 1014.50 1014.48 1014.51 1014.79 1015.47 1015.88 1016.45 1016.45 1016.49 1016.76 1016.83 1016.84 1016.95 1017.08 1017.16 1017.23
1013.64 1013.62 1013.25 1013.68 1015.18 1014.53 1014.34 1014.69 1014.92 1015.12 1015.47 1015.85 1016.38 1016.50 1016.64 1016.84 1017.02 1017.13 1017.17 1017.43 1017.47 1017.38
1013.64 1013.92 1014.27 1014.31 1014.80 1014.96 1014.54 1014.95 1015.45 1015.86 1016.28 1016.78 1016.77 1016.91 1016.72 1016.56 1016.68 1016.92 1017.16 1017.54 1017.78 1017.79
Thickness
5765 5765 5768 5770 5768 5768 5767 5769 5770 5771 5774 5774 5775 5777 5779 5776 5776 5778 5780 5782 5782 5778
5766 5765 5769 5771 5771 5771 5770 5772 5772 5772 5773 5774 5774 5776 5776 5777 5778 5779 5780 5781 5782 5779
5770 5770 5769 5768 5771 5774 5776 5776 5776 5775 5777 5779 5778 5777 5776 5775 5778 5779 5781 5780 5779 5779
5770 5771 5771 5770 5771 5774 5775 5778 5778 5778 5776 5776 5778 5778 5776 5776 5777 5778 5777 5777 5775 5773
5765 5770 5770 5770 5773 5772 5771 5773 5775 5775 5774 5774 5775 5776 5776 5776 5778 5775 5775 5775 5772 5769
5758 5761 5766 5769 5772 5773 5771 5771 5772 5771 5771 5772 5773 5773 5776 5776 5776 5776 5775 5775 5772 5772
5755 5759 5762 5764 5767 5770 5772 5770 5769 5770 5771 5772 5772 5773 5774 5775 5774 5773 5773 5774 5773 5771
5752 5755 5763 5765 5767 5768 5769 5768 5768 5767 5768 5771 5770 5771 5770 5771 5771 5772 5772 5773 5772 5771
5747 5750 5756 5766 5768 5769 5770 5767 5764 5764 5765 5765 5768 5770 5770 5771 5769 5770 5769 5769 5770 5770
5748 5750 5752 5756 5764 5766 5767 5768 5764 5762 5763 5763 5765 5767 5767 5767 5766 5767 5768 5769 5768 5767
5746 5747 5749 5752 5755 5762 5763 5765 5765 5762 5761 5763 5763 5763 5763 5762 5762 5762 5763 5765 5765 5762
5737 5746 5745 5743 5742 5755 5754 5758 5762 5761 5756 5756 5753 5754 5755 5754 5756 5756 5756 5756 5755 5755
5736 5739 5743 5742 5726 5742 5748 5748 5750 5750 5749 5747 5746 5747 5746 5745 5745 5745 5746 5744 5744 5744
5728 5727 5723 5722 5725 5728 5736 5736 5735 5735 5735 5731 5734 5735 5737 5738 5738 5738 5737 5734 5732 5733